Regional Weather Roundup
Issued by NWS

Home | Current Version | Previous Version | Graphics & Text | Print | Product List | Glossary On
Versions: 1 2 3 4 5 6 7 8 9 10 11 12 13 14 15 16 17 18 19 20 21 22 23 24 25 26 27 28 29 30 31 32 33 34 35 36 37 38 39 40 41 42 43 44 45 46 47 48 49 50
000
ASUS43 KIND 191459
RWRIN

WEATHER ROUNDUP FOR INDIANA
NATIONAL WEATHER SERVICE INDIANAPOLIS IN
1100 AM EDT SUN APR 19 2015

NOTE: "FAIR" INDICATES FEW OR NO CLOUDS BELOW 12,000 FEET WITH NO
SIGNIFICANT WEATHER AND/OR OBSTRUCTIONS TO VISIBILITY.

* - STATION DOES NOT REPORT WEATHER SUCH AS PRECIPITATION OR FOG.

+ - STATION NOT QUALITY CONTROLLED BY THE NATIONAL WEATHER SERVICE.
    USE DATA WITH CAUTION...ESPECIALLY DEWPOINT AND RELATIVE
    HUMIDITY OBSERVATIONS.

INZ001>003-010>013-019-020-191600-
NORTHWEST INDIANA

CITY           SKY/WX    TMP DP  RH WIND       PRES   REMARKS
GARY /AIRPORT/ PTSUNNY   66  28  24 SE10G30   29.78

$$

LMZ046-743>745-191600-
SOUTHERN LAKE MICHIGAN

STATION/POSITION TIME  TEMP WIND        PRES
                       AIR  DIR/SP/G
                 (UTC) (F)  (DEG/KT/KT) (MB)
BURNS HARBOR     1400   63  120/ 15/ 27 1009.1F
MICHIGAN CITY    1400   58   90/ 14/ 20   N/A
4NW MICH CITY    1400   54  130/ 14/ 19   N/A

$$

INZ004-005-014>016-021>024-191600-
NORTH CENTRAL INDIANA

CITY           SKY/WX    TMP DP  RH WIND       PRES   REMARKS
ELKHART        PTSUNNY   64  30  27 E16G23    29.84F
GOSHEN         MOSUNNY   61  39  44 E18       29.83F
SOUTH BEND     PTSUNNY   64  35  34 E16       29.83F

$$

INZ006>009-017-018-025>027-191600-
NORTHEAST INDIANA

CITY           SKY/WX    TMP DP  RH WIND       PRES   REMARKS
ANGOLA *+      SUNNY     57  34  41 E16       29.87F
FORT WAYNE     PTSUNNY   60  38  43 E20       29.84F

$$

INZ028-029-035-036-043>045-051>053-191600-
WEST CENTRAL INDIANA

CITY           SKY/WX    TMP DP  RH WIND       PRES   REMARKS
GREENCASTLE +  LGT RAIN  55  48  76 E10       29.73F
LAFAYETTE      CLOUDY    59  43  55 E15       29.74F
TERRE HAUTE    LGT RAIN  58  53  84 E8        29.70F

$$

INZ030>032-037>040-046>048-054>057-064-065-191600-
CENTRAL INDIANA

CITY           SKY/WX    TMP DP  RH WIND       PRES   REMARKS
COLUMBUS       LGT RAIN  55  52  88 E12       29.74F FOG
INDIANAPOLIS   LGT RAIN  58  50  75 E12       29.73F
-EAGLE CREEK   LGT RAIN  58  49  72 E8        29.75F
KOKOMO *+      CLOUDY    57  41  54 E16G24    29.78F
MT COMFORT *+  CLOUDY    57  41  54 SE10      29.77F
SHELBYVILLE    RAIN      60  51  72 E12       29.75F

$$

INZ033-034-041-042-049-050-058-059-191600-
EAST CENTRAL INDIANA

CITY           SKY/WX    TMP DP  RH WIND       PRES   REMARKS
MUNCIE         LGT RAIN  60  46  59 E14       29.79F

$$

INZ060-061-067>069-081>083-085>088-191600-
SOUTHWEST INDIANA

CITY           SKY/WX    TMP DP  RH WIND       PRES   REMARKS
EVANSVILLE     RAIN      61  60  97 E3        29.65F FOG
HUNTINGBURG *+ CLOUDY    63  57  82 SE7       29.66F

$$

INZ062-063-066-070>080-084-089>092-191600-
SOUTH CENTRAL AND SOUTHEAST INDIANA

CITY           SKY/WX    TMP DP  RH WIND       PRES   REMARKS
BLOOMINGTON    RAIN      57  55  93 E7        29.70F FOG
MADISON *+     CLOUDY    55  54  94 E9        29.75F

$$




USA.gov is the U.S. government's official web portal to all federal, state and local government web resources and services.